Theta_e
311 314 315 315 313 312 312 313 314 314 314 313 315 316 316 316 316 316 316 316 317 317 317 316 316 315 314 314 313 323 345 346 347 347 346 345 345 345 346 346 346 340 343 344
313 314 314 314 312 311 312 313 314 314 314 314 316 316 317 317 316 316 316 316 317 318 318 318 317 318 317 316 315 316 330 344 345 345 344 344 343 343 343 344 344 340 341 341
314 313 312 312 312 313 314 314 315 315 314 316 317 317 317 316 315 316 316 316 316 316 317 319 319 317 319 321 320 320 323 337 345 345 344 344 345 344 343 343 342 338 338 337
312 313 312 312 313 313 315 314 314 314 316 317 317 318 318 317 316 316 317 317 316 315 315 316 317 318 317 320 322 321 322 332 343 345 345 345 346 345 345 344 342 340 337 337
315 313 313 313 314 313 315 313 314 316 318 319 317 318 318 317 317 317 316 316 318 318 317 316 316 314 314 316 319 323 325 329 336 344 345 346 347 347 347 346 346 344 343 340
314 312 313 314 313 313 316 316 317 317 318 319 318 319 318 317 316 315 316 317 317 316 316 316 315 315 315 315 316 322 327 329 332 340 344 346 347 347 346 346 346 347 347 346
315 315 314 312 314 316 317 317 318 319 319 320 317 317 317 316 316 315 316 317 317 316 315 317 316 316 315 315 316 320 325 329 331 335 343 346 346 346 346 346 346 345 344 344
315 316 314 315 314 316 318 318 319 322 320 319 317 318 317 316 315 315 316 317 315 315 316 317 317 316 317 318 317 317 321 327 329 332 339 343 344 343 343 342 341 342 342 342
315 315 315 317 317 316 319 320 318 320 320 321 317 316 315 314 314 315 316 315 315 316 317 317 316 316 315 317 319 318 320 324 328 329 330 331 330 328 328 326 327 331 331 333
315 316 314 316 317 316 318 317 321 321 320 318 314 314 313 312 314 316 314 315 315 316 317 318 317 317 317 316 319 321 321 323 326 325 325 323 320 321 324 322 324 326 327 328
314 316 315 315 317 316 319 320 319 317 319 319 317 312 314 314 313 313 315 314 315 316 317 318 316 314 317 316 318 320 321 322 324 324 324 324 322 320 321 327 328 328 326 328
314 317 316 315 314 313 314 318 319 322 318 320 320 317 312 312 312 314 313 313 315 315 315 317 317 315 317 317 316 318 320 320 320 321 321 320 320 321 323 325 328 327 329 330
314 314 316 315 313 313 316 315 316 316 315 314 317 315 313 313 312 312 312 314 315 315 313 315 317 317 317 317 317 317 315 316 318 316 318 321 321 322 324 323 323 327 330 332
313 314 315 316 314 313 315 315 315 316 319 318 317 314 313 313 312 312 314 315 315 314 313 312 315 315 314 314 316 317 317 316 315 315 316 318 318 320 321 325 326 327 330 331
311 314 312 312 312 313 312 312 312 316 315 316 314 313 313 312 312 312 315 315 314 312 311 310 312 314 313 312 311 312 315 316 315 315 315 316 318 318 319 321 324 327 329 329
310 311 312 311 309 309 309 308 309 311 312 313 313 313 311 313 315 316 315 315 313 312 310 310 311 313 313 311 310 310 310 312 315 316 314 314 314 316 317 319 320 324 326 326
309 310 310 309 308 310 311 309 309 309 310 310 312 313 316 317 316 316 315 313 312 311 309 309 310 311 312 310 309 309 309 309 310 311 312 313 313 314 315 316 318 320 322 324
309 308 310 309 309 311 309 316 316 315 315 315 316 317 316 315 314 313 312 311 310 309 309 308 308 308 307 307 308 307 308 308 308 309 309 310 310 312 314 316 318 319 321 321
307 309 311 312 313 310 311 315 316 316 316 314 314 314 314 311 310 310 309 309 308 308 308 307 306 306 306 306 307 307 307 307 307 308 309 309 310 311 312 314 316 318 318 318
306 308 312 310 312 315 314 315 312 312 316 313 312 310 310 309 310 310 308 308 308 307 307 306 306 306 306 306 306 305 305 306 307 307 307 307 308 309 310 311 313 314 315 316
313 311 311 310 314 313 312 312 311 317 315 310 309 309 309 309 309 309 308 307 307 306 306 305 306 307 306 306 305 305 305 306 306 306 306 306 306 307 308 309 310 311 312 313
315 316 315 314 316 315 311 312 313 312 310 309 308 308 307 307 306 305 305 305 305 305 305 304 305 306 306 305 305 304 305 305 305 305 304 304 305 306 306 307 308 309 310 311
315 315 316 314 315 310 310 309 309 308 308 307 306 306 306 305 305 304 304 304 303 303 304 304 303 305 303 304 305 304 304 303 303 303 303 303 303 304 305 306 307 307 308 309
312 311 313 312 311 310 309 309 307 306 306 306 305 305 304 303 303 303 303 302 301 301 302 300 302 303 302 302 303 303 303 302 302 302 302 303 303 304 305 306 307 307 308 309
310 311 311 311 309 308 308 307 306 305 305 305 304 304 303 303 302 302 301 301 300 300 299 300 300 300 299 300 300 300 301 301 301 302 303 303 303 305 305 306 306 307 307 308
310 310 311 310 308 306 306 305 305 305 304 304 304 303 302 302 301 301 300 299 298 298 298 298 297 298 298 298 299 299 301 301 301 300 302 302 302 303 303 304 305 305 305 307
Wind_Speed
2 5 11 13 10 4 4 6 9 12 13 5 11 12 12 14 15 14 12 11 11 13 13 14 16 16 17 20 26 30 28 35 29 30 31 29 33 31 29 31 30 34 34 38
4 11 12 8 8 8 7 9 11 11 11 7 12 14 15 15 11 10 12 15 18 18 16 15 18 15 15 19 23 30 33 32 36 32 33 29 29 28 28 26 27 32 32 34
11 3 9 9 8 9 10 10 10 11 9 8 12 15 10 8 11 13 14 15 17 17 19 19 18 19 18 16 19 25 32 34 37 37 29 23 14 14 19 24 29 37 35 34
9 13 12 8 10 10 12 10 13 10 8 10 4 9 16 11 8 9 14 15 14 17 19 18 19 22 24 24 18 20 28 29 32 33 30 31 30 25 27 26 31 34 37 36
4 5 6 8 9 12 9 4 9 10 11 8 13 13 3 11 16 13 8 15 17 17 18 21 21 26 29 27 23 19 20 24 27 29 31 32 29 26 18 20 23 26 29 34
10 2 4 7 2 9 2 4 4 2 5 13 16 13 5 8 13 11 14 9 13 17 18 18 24 26 26 27 22 19 18 22 25 28 30 30 28 25 20 21 22 23 22 23
11 17 11 9 13 7 6 6 7 7 8 12 5 10 13 14 16 12 9 8 14 17 19 19 20 18 22 23 24 19 19 22 23 27 29 31 30 27 26 20 21 20 18 18
6 9 5 5 12 9 9 10 7 9 12 16 12 9 9 5 12 12 9 9 14 17 18 19 19 18 22 22 25 22 23 23 22 25 26 23 22 22 20 18 16 16 17 15
5 5 1 3 2 2 5 7 1 6 6 10 11 14 11 13 11 7 9 13 17 18 18 19 18 21 24 19 20 20 23 23 22 23 20 18 19 17 17 17 16 12 12 10
4 6 2 2 2 5 3 7 3 1 7 16 10 15 12 15 7 10 13 15 17 17 18 19 17 17 22 20 12 14 17 21 17 16 16 18 19 15 12 14 14 14 13 12
1 5 5 1 6 11 4 4 2 1 3 6 12 6 3 9 12 15 11 16 16 15 16 17 17 18 16 20 7 4 6 12 16 17 17 15 16 17 17 15 15 16 16 15
1 3 9 15 11 4 5 9 9 6 6 5 8 17 15 19 11 7 16 19 15 12 14 14 16 13 10 14 15 9 3 3 6 3 11 16 18 20 21 20 18 17 16 15
1 2 5 4 4 3 6 6 7 4 6 16 15 13 5 6 15 19 20 16 11 11 13 14 13 12 11 15 15 11 15 11 3 6 8 9 14 14 16 20 17 17 16 16
1 6 12 11 10 5 7 11 14 14 8 16 18 28 25 22 21 20 17 11 11 11 12 14 12 10 13 15 17 18 12 12 19 10 11 12 20 17 24 12 16 18 17 20
9 11 16 18 21 18 15 15 14 17 21 20 25 25 24 24 22 19 12 12 11 12 16 14 12 10 9 14 17 20 19 10 14 17 15 14 12 17 26 22 17 16 20 20
3 10 5 12 11 14 18 21 21 23 24 24 25 30 21 14 9 11 13 13 14 15 17 14 13 11 10 10 12 15 14 13 7 16 15 11 12 11 18 28 25 20 19 19
6 6 5 13 7 9 12 18 19 20 19 16 18 20 10 13 14 15 14 14 18 19 17 16 15 12 14 15 13 14 13 12 8 6 10 14 9 7 8 17 21 22 22 20
13 6 4 7 6 6 2 2 2 4 10 11 16 17 16 16 14 16 16 19 20 19 19 18 16 20 24 21 19 16 17 14 14 12 9 9 6 11 11 7 12 18 18 21
14 11 4 3 5 13 9 1 2 3 13 11 16 15 12 16 22 25 19 14 16 20 21 21 29 28 26 25 24 21 19 19 17 16 13 11 6 9 12 8 9 11 13 16
6 7 7 3 4 4 4 2 3 3 11 7 9 19 24 23 18 18 17 20 25 24 27 27 32 31 30 28 25 24 24 22 20 18 16 15 15 16 14 15 9 8 10 14
3 2 9 8 4 7 3 4 5 5 6 17 16 23 23 20 19 25 24 26 24 24 30 35 35 31 30 31 28 27 27 24 22 20 20 20 20 20 20 17 14 14 13 14
3 4 3 3 4 5 5 7 6 11 21 16 23 23 20 20 23 25 25 24 23 24 31 32 27 30 32 31 32 28 26 25 24 24 25 24 23 22 21 20 19 18 18 20
2 2 1 3 3 2 5 9 14 12 16 24 23 22 23 23 25 26 25 25 25 25 21 28 29 29 31 32 33 30 30 29 29 29 29 29 26 25 25 24 23 21 22 24
1 1 3 4 0 12 14 11 14 19 20 22 21 20 22 27 27 27 24 20 18 20 16 27 25 19 20 25 29 31 32 31 28 28 29 26 25 26 26 25 23 22 23 23
2 2 2 6 10 14 2 16 20 23 22 20 20 23 25 27 26 25 23 23 19 19 22 24 17 20 21 23 21 24 28 27 26 29 26 25 22 22 23 23 22 24 26 26
1 1 2 5 10 8 17 18 21 19 22 22 24 27 25 24 27 27 22 20 18 18 20 18 22 21 27 29 26 22 26 25 23 21 21 20 20 19 19 22 24 27 32 23
Wind_Direction
104 209 217 213 209 221 238 242 257 265 273 276 278 285 290 301 303 302 301 294 281 280 282 281 281 289 283 275 262 244 228 227 212 208 208 209 211 211 214 216 214 228 221 219
199 243 239 213 202 218 220 256 263 272 262 215 278 277 289 282 279 278 286 294 295 293 285 282 286 284 272 269 262 248 232 224 212 210 210 210 216 215 214 217 215 228 226 227
224 210 103 194 211 228 234 236 261 271 303 245 279 280 270 270 246 270 274 270 274 279 292 298 292 281 287 265 263 251 240 224 216 210 207 207 203 208 203 214 218 225 227 226
242 249 246 226 240 220 263 229 254 270 281 290 12 291 295 297 275 266 280 296 318 305 299 294 292 294 293 273 264 261 248 228 223 210 205 202 202 200 214 214 214 214 220 220
208 182 169 204 233 185 255 204 255 277 270 290 279 279 226 285 293 291 329 327 332 332 314 297 294 293 294 287 283 263 245 233 223 216 213 204 210 218 210 209 206 208 215 220
258 244 239 255 191 205 154 260 287 268 279 262 270 261 290 291 291 298 312 328 338 342 336 324 307 294 285 286 282 270 244 234 220 212 213 214 210 208 202 197 201 205 210 215
255 244 256 231 256 189 214 255 271 258 239 267 328 289 270 290 282 296 289 317 334 329 331 329 325 313 300 293 288 276 249 236 220 214 213 214 215 209 207 193 193 195 203 206
261 271 214 186 226 248 207 218 232 267 273 286 306 264 288 285 300 297 283 323 332 336 334 329 330 321 311 306 293 277 255 238 217 204 206 206 206 201 203 193 194 198 204 208
199 248 267 50 123 232 155 211 308 275 243 275 264 269 272 272 290 338 342 343 346 336 330 325 317 335 320 313 305 281 264 244 220 206 190 188 188 182 178 182 187 185 197 198
197 268 204 111 105 60 233 137 189 213 283 283 273 283 270 287 292 318 325 337 338 330 331 332 320 313 325 310 315 292 268 248 214 194 176 174 178 180 175 176 179 183 189 187
166 250 238 223 229 248 177 199 105 316 213 273 297 267 205 271 296 304 301 323 326 325 331 335 325 307 324 317 333 327 278 230 194 177 180 178 172 173 174 175 178 176 172 174
4 262 257 260 271 274 261 240 216 224 226 235 264 280 275 273 282 259 292 313 315 318 332 337 341 320 324 347 28 38 101 137 82 118 206 181 193 180 179 176 178 169 165 167
124 244 277 250 208 189 235 206 218 231 255 249 263 267 188 215 295 297 304 306 306 321 336 340 352 356 340 339 340 23 43 26 14 266 257 243 216 194 202 192 173 182 173 170
307 258 255 259 287 304 263 240 228 224 236 262 252 273 279 288 293 303 300 294 307 316 328 335 335 349 357 5 6 355 293 6 9 334 281 245 230 208 226 218 204 188 185 179
240 245 256 258 264 268 264 258 245 229 243 253 273 275 287 296 297 292 287 286 302 315 322 325 319 322 341 357 1 7 9 308 307 336 339 303 269 245 242 229 224 208 194 192
228 256 239 265 274 272 270 263 256 253 253 257 264 277 287 296 284 266 272 287 299 305 312 312 313 301 310 328 336 340 348 356 284 273 304 331 317 257 240 235 223 216 204 199
252 247 266 277 299 296 270 260 260 258 257 259 261 273 313 281 279 278 288 293 297 302 300 299 300 296 292 296 303 303 311 313 302 277 272 291 320 332 248 244 229 221 209 200
237 229 228 277 297 254 28 342 342 290 274 260 269 274 281 294 290 288 287 288 290 293 296 294 292 292 289 285 286 283 284 281 282 283 280 274 324 327 308 259 236 228 210 202
220 211 214 240 237 293 291 89 317 338 297 289 288 305 310 309 301 285 281 277 285 293 294 290 288 287 284 280 282 283 276 273 270 266 266 272 272 264 277 257 229 223 202 197
146 204 197 177 243 267 46 156 353 294 281 37 336 311 305 303 287 283 293 299 296 289 287 287 286 283 277 272 272 278 277 269 267 262 258 257 256 250 246 249 240 235 221 216
125 150 213 227 254 276 4 338 306 268 342 317 316 313 305 291 277 291 296 293 289 287 282 290 280 275 270 269 267 269 269 267 266 262 260 259 256 252 253 256 246 247 243 239
200 187 190 199 236 265 23 340 322 321 305 306 311 307 297 292 290 289 289 286 286 286 277 279 275 272 264 265 260 260 259 262 262 261 259 258 257 251 249 249 251 245 242 244
241 345 329 241 296 343 298 298 299 306 300 309 311 305 297 295 292 292 291 287 282 281 276 272 277 262 270 265 254 252 260 263 257 257 258 254 252 250 247 242 243 243 240 240
90 178 257 318 146 320 316 316 324 318 309 308 301 301 307 298 296 296 296 297 295 289 276 287 265 268 271 272 259 248 254 260 251 254 253 244 245 243 236 235 235 237 239 240
309 304 341 270 295 325 297 324 320 317 307 307 307 295 298 301 301 301 300 299 297 293 285 270 270 275 267 269 263 261 257 250 247 250 247 245 246 235 231 235 239 237 241 238
191 138 276 292 335 296 297 313 313 306 311 311 308 305 306 307 303 304 302 302 297 294 289 280 276 267 272 271 264 260 249 238 237 249 244 237 235 236 240 246 244 235 239 237